Cloud_Cover
0 0 0 0 0 0 0 0 0 0 0 7 5 6 2 0 19 24 22 23 20 1 15 26 3 0 28 20 3 4 0 1 4 0 6 99 79 5 0 0 0 0 0
0 0 0 0 0 0 0 0 0 0 0 0 0 13 46 29 7 23 19 4 17 21 9 9 38 5 4 5 6 5 5 5 0 2 2 12 67 78 65 6 10 0 0
0 0 0 0 0 0 0 0 0 0 0 0 3 16 8 3 23 3 3 0 3 2 13 5 1 2 5 0 0 1 4 5 5 4 5 5 20 64 94 77 17 4 0
0 0 0 0 0 0 0 0 0 0 0 0 0 0 0 0 0 0 0 0 0 0 0 5 0 5 5 5 4 0 0 0 3 7 2 5 5 100 98 100 100 4 4
0 0 0 0 0 0 0 0 0 0 0 0 0 0 0 0 0 0 0 0 0 4 100 7 1 5 5 5 5 5 0 0 2 0 0 5 6 99 100 100 100 62 3
0 0 0 0 0 0 0 0 0 0 0 0 0 0 0 0 0 0 0 0 0 90 100 88 65 16 5 5 2 4 5 0 0 2 1 6 85 100 100 100 100 100 48
0 0 0 0 0 0 0 0 0 0 0 0 0 0 0 0 0 6 2 0 3 50 100 99 54 32 72 3 0 0 4 5 1 1 6 6 99 100 100 100 100 100 88
0 0 0 0 0 0 0 0 0 0 0 0 0 0 0 0 0 7 0 1 23 84 87 100 100 79 19 5 86 5 5 5 9 5 18 89 100 100 100 100 100 100 92
0 0 0 0 0 0 0 0 0 0 0 0 0 0 0 0 0 1 5 96 8 70 100 80 100 100 100 66 94 72 54 70 29 100 42 100 100 100 100 100 100 100 85
0 0 0 0 0 0 0 0 0 0 0 0 0 0 0 0 1 59 3 5 4 84 98 100 100 95 100 100 86 92 100 5 37 72 98 100 100 100 100 100 100 70 89
0 0 0 0 0 0 0 0 0 0 0 0 0 0 0 0 5 37 51 64 6 14 100 100 100 100 100 97 100 100 58 68 86 100 100 100 100 100 100 100 100 96 97
0 0 0 0 0 0 0 0 0 0 0 0 0 0 0 0 0 5 78 4 96 80 44 100 100 100 100 100 100 99 100 90 100 100 100 100 100 100 100 100 61 16 9
0 0 0 0 0 0 0 0 0 0 0 0 0 0 0 0 5 0 0 0 42 4 93 100 100 100 100 100 100 100 100 100 100 100 100 100 100 100 100 74 2 42 36
0 0 0 0 0 0 0 0 0 0 0 0 0 0 5 5 5 0 0 0 4 3 9 100 100 100 100 100 100 100 100 100 100 100 100 100 96 43 8 0 0 20 35
0 0 0 0 0 0 0 0 0 0 0 0 0 0 33 54 2 0 0 5 9 8 100 100 100 100 100 100 100 100 100 100 100 100 100 70 24 96 72 6 21 100 100
0 0 0 0 1 0 0 0 0 0 0 0 0 1 46 61 2 18 0 0 5 4 5 25 86 100 100 100 100 100 100 100 100 100 100 97 99 100 100 100 100 100 100
0 0 2 28 70 1 0 0 0 0 0 0 0 2 31 53 55 75 48 16 5 1 5 14 4 64 83 100 100 100 100 100 100 100 100 100 100 100 100 100 100 100 100
4 2 5 5 1 0 0 0 0 0 0 0 0 1 34 25 50 94 99 44 1 13 83 97 76 74 21 24 100 100 100 100 100 100 100 100 100 100 100 100 99 86 59
0 0 0 0 0 0 0 0 0 0 0 0 0 1 14 29 90 100 100 100 96 42 95 100 98 89 43 50 98 100 100 100 100 100 100 100 100 100 100 100 100 5 5
0 0 0 2 5 0 0 0 0 0 3 4 0 0 2 40 78 82 100 100 100 100 100 96 100 43 98 45 54 100 100 100 100 98 100 100 100 100 100 100 94 75 5
0 0 0 5 5 5 5 2 3 2 58 74 9 2 8 16 49 100 100 97 95 100 100 100 57 34 86 65 54 58 76 97 100 66 100 100 100 69 54 17 5 5 15
4 0 3 5 84 62 58 9 61 87 54 87 8 24 38 88 100 100 100 100 100 100 100 99 35 73 100 30 100 99 100 98 100 100 19 100 79 5 5 11 5 5 5
5 5 2 5 8 83 100 71 77 93 10 8 16 78 99 100 100 100 100 100 100 100 100 78 95 100 100 100 100 100 100 94 100 30 34 6 8 2 65 1 5 6 6
5 1 11 20 50 88 13 82 44 4 7 43 100 98 100 92 96 100 100 100 100 100 100 84 86 64 97 100 100 100 60 100 87 74 99 100 36 4 52 6 89 84 73
100 100 96 97 100 88 34 5 5 8 50 96 100 100 100 100 100 100 100 99 99 78 93 68 38 99 100 100 99 100 100 100 99 100 33 56 25 27 73 95 96 99 98
25 99 94 100 100 93 34 41 44 34 68 99 100 98 92 96 70 7 3 71 39 70 100 54 56 90 92 100 100 79 91 100 90 18 21 37 72 71 100 99 99 100 100